Time,TemperatureF,DewpointF,PressureIn,WindDirection,WindDirectionDegrees,WindSpeedMPH,WindSpeedGustMPH,Humidity,HourlyPrecipIn,Conditions,Clouds,dailyrainin,SoftwareType,DateUTC
2013-01-29 00:05:00,47.0,42.4,30.02,WSW,240,0.0,0.0,84,0.00,,,0.00,Wunderground v.1.15,2013-01-29 05:05:00,
2013-01-29 00:10:00,46.8,42.2,30.02,WSW,240,0.0,0.0,84,0.00,,,0.00,Wunderground v.1.15,2013-01-29 05:10:00,
2013-01-29 00:20:00,46.7,41.8,30.02,WSW,240,0.0,0.0,83,0.00,,,0.00,Wunderground v.1.15,2013-01-29 05:20:00,
2013-01-29 00:25:00,46.8,41.6,30.02,WSW,240,0.0,0.0,82,0.00,,,0.00,Wunderground v.1.15,2013-01-29 05:25:00,
2013-01-29 00:30:00,47.0,41.1,30.02,WSW,240,0.0,0.0,80,0.00,,,0.00,Wunderground v.1.15,2013-01-29 05:30:00,
2013-01-29 00:40:00,47.3,40.5,30.01,WSW,242,0.0,0.0,77,0.00,,,0.00,Wunderground v.1.15,2013-01-29 05:40:00,
2013-01-29 00:50:00,47.4,39.5,30.01,WSW,242,0.0,0.0,74,0.00,,,0.00,Wunderground v.1.15,2013-01-29 05:50:00,
2013-01-29 00:55:00,47.3,39.1,30.01,WSW,242,0.0,0.0,73,0.00,,,0.00,Wunderground v.1.15,2013-01-29 05:55:00,
2013-01-29 01:05:00,47.4,38.1,30.00,WSW,242,0.0,0.0,70,0.00,,,0.00,Wunderground v.1.15,2013-01-29 06:05:00,
2013-01-29 01:10:00,48.0,37.9,30.00,WSW,242,0.0,0.0,68,0.00,,,0.00,Wunderground v.1.15,2013-01-29 06:10:00,
2013-01-29 01:20:00,49.8,37.3,29.99,West,259,1.0,1.0,62,0.00,,,0.00,Wunderground v.1.15,2013-01-29 06:20:00,
2013-01-29 01:30:00,49.4,37.3,29.99,West,259,0.0,0.0,63,0.00,,,0.00,Wunderground v.1.15,2013-01-29 06:30:00,
2013-01-29 01:40:00,49.5,37.0,29.99,West,259,0.0,0.0,62,0.00,,,0.00,Wunderground v.1.15,2013-01-29 06:40:00,
2013-01-29 01:50:00,50.7,36.0,29.99,WSW,257,2.0,2.0,57,0.00,,,0.00,Wunderground v.1.15,2013-01-29 06:50:00,
2013-01-29 02:00:00,50.7,36.9,29.99,West,260,1.0,2.0,59,0.00,,,0.00,Wunderground v.1.15,2013-01-29 07:00:00,
2013-01-29 02:05:00,50.5,36.7,29.97,WSW,250,1.0,2.0,59,0.00,,,0.00,Wunderground v.1.15,2013-01-29 07:05:00,
2013-01-29 02:15:00,50.7,37.3,29.98,SW,227,1.0,2.0,60,0.00,,,0.00,Wunderground v.1.15,2013-01-29 07:15:00,
2013-01-29 02:20:00,50.4,37.0,29.98,SW,229,1.0,1.0,60,0.00,,,0.00,Wunderground v.1.15,2013-01-29 07:20:00,
2013-01-29 02:30:00,50.1,37.2,29.98,WSW,258,1.0,1.0,61,0.00,,,0.00,Wunderground v.1.15,2013-01-29 07:30:00,
2013-01-29 02:40:00,49.5,37.8,29.98,West,266,1.0,1.0,64,0.00,,,0.00,Wunderground v.1.15,2013-01-29 07:40:00,
2013-01-29 02:50:00,49.1,37.8,29.98,West,266,0.0,0.0,65,0.00,,,0.00,Wunderground v.1.15,2013-01-29 07:50:00,
2013-01-29 03:00:00,48.8,38.3,29.98,West,266,0.0,0.0,67,0.00,,,0.00,Wunderground v.1.15,2013-01-29 08:00:00,
2013-01-29 03:10:00,48.3,38.2,29.98,West,268,1.0,1.0,68,0.00,,,0.00,Wunderground v.1.15,2013-01-29 08:10:00,
2013-01-29 03:15:00,48.3,38.2,29.98,WNW,302,1.0,1.0,68,0.00,,,0.00,Wunderground v.1.15,2013-01-29 08:15:00,
2013-01-29 03:25:00,48.3,37.8,29.99,NE,40,0.0,1.0,67,0.00,,,0.00,Wunderground v.1.15,2013-01-29 08:25:00,
2013-01-29 03:35:00,47.9,37.8,29.99,NE,40,0.0,0.0,68,0.00,,,0.00,Wunderground v.1.15,2013-01-29 08:35:00,
2013-01-29 03:45:00,47.7,37.7,29.98,SE,124,0.0,0.0,68,0.00,,,0.00,Wunderground v.1.15,2013-01-29 08:45:00,
2013-01-29 03:50:00,47.7,37.7,29.98,SE,124,0.0,1.0,68,0.00,,,0.00,Wunderground v.1.15,2013-01-29 08:50:00,
2013-01-29 04:00:00,47.6,37.9,29.98,NE,44,0.0,2.0,69,0.00,,,0.00,Wunderground v.1.15,2013-01-29 09:00:00,
2013-01-29 04:10:00,47.9,37.5,29.98,West,280,0.0,0.0,67,0.00,,,0.00,Wunderground v.1.15,2013-01-29 09:10:00,
2013-01-29 04:20:00,48.0,37.6,29.98,NNE,33,0.0,1.0,67,0.00,,,0.00,Wunderground v.1.15,2013-01-29 09:20:00,
2013-01-29 04:30:00,48.6,37.4,29.98,West,266,1.0,1.0,65,0.00,,,0.00,Wunderground v.1.15,2013-01-29 09:30:00,
2013-01-29 04:40:00,49.6,37.1,29.97,West,263,1.0,1.0,62,0.00,,,0.00,Wunderground v.1.15,2013-01-29 09:40:00,
2013-01-29 04:50:00,49.5,36.2,29.97,West,263,0.0,1.0,60,0.00,,,0.00,Wunderground v.1.15,2013-01-29 09:50:00,
2013-01-29 05:00:00,49.9,36.1,29.97,WNW,286,0.0,0.0,59,0.00,,,0.00,Wunderground v.1.15,2013-01-29 10:00:00,
2013-01-29 05:10:00,49.6,36.3,29.98,WNW,284,0.0,1.0,60,0.00,,,0.00,Wunderground v.1.15,2013-01-29 10:10:00,
2013-01-29 05:20:00,49.6,36.7,29.98,West,261,1.0,1.0,61,0.00,,,0.00,Wunderground v.1.15,2013-01-29 10:20:00,
2013-01-29 05:30:00,49.9,38.2,29.98,West,265,2.0,2.0,64,0.00,,,0.00,Wunderground v.1.15,2013-01-29 10:30:00,
2013-01-29 05:40:00,49.5,37.8,29.98,WSW,257,1.0,2.0,64,0.00,,,0.00,Wunderground v.1.15,2013-01-29 10:40:00,
2013-01-29 05:50:00,49.4,38.5,29.97,West,268,1.0,2.0,66,0.00,,,0.00,Wunderground v.1.15,2013-01-29 10:50:00,
2013-01-29 06:00:00,49.1,38.6,29.97,West,268,1.0,1.0,67,0.00,,,0.00,Wunderground v.1.15,2013-01-29 11:00:00,
2013-01-29 06:10:00,48.9,39.2,29.98,West,268,1.0,1.0,69,0.00,,,0.00,Wunderground v.1.15,2013-01-29 11:10:00,
2013-01-29 06:15:00,49.2,39.5,29.97,West,268,1.0,1.0,69,0.00,,,0.00,Wunderground v.1.15,2013-01-29 11:15:00,
2013-01-29 06:25:00,49.1,40.1,29.97,West,268,0.0,1.0,71,0.00,,,0.00,Wunderground v.1.15,2013-01-29 11:25:00,
2013-01-29 06:35:00,49.4,40.7,29.97,West,268,1.0,2.0,72,0.00,,,0.00,Wunderground v.1.15,2013-01-29 11:35:00,
2013-01-29 06:45:00,50.4,42.1,29.96,NNW,340,2.0,4.0,73,0.00,,,0.00,Wunderground v.1.15,2013-01-29 11:45:00,
2013-01-29 06:50:00,51.0,42.3,29.96,West,269,3.0,3.0,72,0.00,,,0.00,Wunderground v.1.15,2013-01-29 11:50:00,
2013-01-29 07:00:00,51.3,42.2,29.97,West,273,2.0,3.0,71,0.00,,,0.00,Wunderground v.1.15,2013-01-29 12:00:00,
2013-01-29 07:10:00,51.1,42.4,29.97,West,274,1.0,1.0,72,0.00,,,0.00,Wunderground v.1.15,2013-01-29 12:10:00,
2013-01-29 07:20:00,51.3,42.6,29.97,NE,54,1.0,2.0,72,0.00,,,0.00,Wunderground v.1.15,2013-01-29 12:20:00,
2013-01-29 07:30:00,51.3,42.6,29.98,WSW,248,1.0,1.0,72,0.00,,,0.00,Wunderground v.1.15,2013-01-29 12:30:00,
2013-01-29 07:40:00,51.1,42.7,29.98,WSW,257,0.0,0.0,73,0.00,,,0.00,Wunderground v.1.15,2013-01-29 12:40:00,
2013-01-29 07:50:00,51.0,43.7,29.97,WSW,238,1.0,3.0,76,0.00,,,0.00,Wunderground v.1.15,2013-01-29 12:50:00,
2013-01-29 08:00:00,51.4,44.4,29.97,West,261,2.0,3.0,77,0.00,,,0.00,Wunderground v.1.15,2013-01-29 13:00:00,
2013-01-29 08:10:00,51.7,45.1,29.97,West,275,2.0,4.0,78,0.00,,,0.00,Wunderground v.1.15,2013-01-29 13:10:00,
2013-01-29 08:20:00,51.9,45.3,29.97,WNW,284,2.0,2.0,78,0.00,,,0.00,Wunderground v.1.15,2013-01-29 13:20:00,
2013-01-29 08:30:00,51.9,45.6,29.98,West,269,2.0,2.0,79,0.00,,,0.00,Wunderground v.1.15,2013-01-29 13:30:00,
2013-01-29 08:40:00,51.9,46.3,29.97,West,275,1.0,2.0,81,0.00,,,0.00,Wunderground v.1.15,2013-01-29 13:40:00,
2013-01-29 08:50:00,52.0,46.0,29.97,West,266,1.0,2.0,80,0.00,,,0.00,Wunderground v.1.15,2013-01-29 13:50:00,
2013-01-29 09:00:00,52.0,46.0,29.98,WSW,238,1.0,1.0,80,0.00,,,0.00,Wunderground v.1.15,2013-01-29 14:00:00,
2013-01-29 09:05:00,52.5,46.2,29.98,West,263,2.0,3.0,79,0.00,,,0.00,Wunderground v.1.15,2013-01-29 14:05:00,
2013-01-29 09:15:00,52.8,45.8,29.98,West,280,2.0,3.0,77,0.00,,,0.00,Wunderground v.1.15,2013-01-29 14:15:00,
2013-01-29 09:20:00,52.8,45.8,29.98,West,280,1.0,1.0,77,0.00,,,0.00,Wunderground v.1.15,2013-01-29 14:20:00,
2013-01-29 09:30:00,52.9,45.9,29.98,North,360,1.0,1.0,77,0.00,,,0.00,Wunderground v.1.15,2013-01-29 14:30:00,
2013-01-29 09:40:00,53.1,46.1,29.98,WNW,291,0.0,0.0,77,0.00,,,0.00,Wunderground v.1.15,2013-01-29 14:40:00,
2013-01-29 09:50:00,53.6,46.2,29.97,West,273,1.0,1.0,76,0.00,,,0.00,Wunderground v.1.15,2013-01-29 14:50:00,
2013-01-29 10:00:00,54.4,47.0,29.97,West,264,1.0,2.0,76,0.00,,,0.00,Wunderground v.1.15,2013-01-29 15:00:00,
2013-01-29 10:10:00,55.3,47.2,29.96,West,272,1.0,2.0,74,0.00,,,0.00,Wunderground v.1.15,2013-01-29 15:10:00,
2013-01-29 10:20:00,55.9,48.1,29.97,WSW,257,1.0,4.0,75,0.00,,,0.00,Wunderground v.1.15,2013-01-29 15:20:00,
2013-01-29 10:30:00,56.6,48.4,29.95,WNW,287,1.0,1.0,74,0.00,,,0.00,Wunderground v.1.15,2013-01-29 15:30:00,
2013-01-29 10:40:00,57.0,49.2,29.96,NW,313,1.0,2.0,75,0.00,,,0.00,Wunderground v.1.15,2013-01-29 15:40:00,
2013-01-29 10:45:00,57.2,49.7,29.96,ENE,76,1.0,2.0,76,0.00,,,0.00,Wunderground v.1.15,2013-01-29 15:45:00,
2013-01-29 10:55:00,57.5,50.0,29.96,WNW,284,2.0,2.0,76,0.00,,,0.00,Wunderground v.1.15,2013-01-29 15:55:00,
2013-01-29 11:05:00,58.0,50.5,29.96,NNE,16,1.0,1.0,76,0.00,,,0.00,Wunderground v.1.15,2013-01-29 16:05:00,
2013-01-29 11:10:00,58.0,50.5,29.95,West,273,2.0,6.0,76,0.00,,,0.00,Wunderground v.1.15,2013-01-29 16:10:00,
2013-01-29 11:20:00,58.1,50.6,29.95,NW,325,1.0,1.0,76,0.00,,,0.00,Wunderground v.1.15,2013-01-29 16:20:00,
2013-01-29 11:30:00,58.9,51.0,29.95,WSW,258,1.0,2.0,75,0.00,,,0.00,Wunderground v.1.15,2013-01-29 16:30:00,
2013-01-29 11:40:00,59.0,50.7,29.94,West,269,1.0,1.0,74,0.00,,,0.00,Wunderground v.1.15,2013-01-29 16:40:00,
2013-01-29 11:50:00,59.0,50.7,29.93,WSW,252,1.0,1.0,74,0.00,,,0.00,Wunderground v.1.15,2013-01-29 16:50:00,
2013-01-29 12:00:00,59.3,51.0,29.93,ENE,61,1.0,1.0,74,0.00,,,0.00,Wunderground v.1.15,2013-01-29 17:00:00,
2013-01-29 12:10:00,59.2,50.9,29.92,SW,236,4.0,4.0,74,0.00,,,0.00,Wunderground v.1.15,2013-01-29 17:10:00,
2013-01-29 12:15:00,58.9,51.0,29.92,NW,305,3.0,4.0,75,0.00,,,0.00,Wunderground v.1.15,2013-01-29 17:15:00,
2013-01-29 12:20:00,59.0,51.4,29.92,SW,215,2.0,2.0,76,0.00,,,0.00,Wunderground v.1.15,2013-01-29 17:20:00,
2013-01-29 12:30:00,58.9,51.7,29.91,NNW,337,1.0,1.0,77,0.00,,,0.00,Wunderground v.1.15,2013-01-29 17:30:00,
2013-01-29 12:40:00,58.9,51.7,29.91,West,275,1.0,1.0,77,0.00,,,0.00,Wunderground v.1.15,2013-01-29 17:40:00,
2013-01-29 12:50:00,58.6,52.1,29.91,West,261,1.0,2.0,79,0.00,,,0.00,Wunderground v.1.15,2013-01-29 17:50:00,
2013-01-29 13:00:00,58.6,52.1,29.90,NNE,18,1.0,3.0,79,0.00,,,0.00,Wunderground v.1.15,2013-01-29 18:00:00,
2013-01-29 13:10:00,58.4,52.3,29.89,West,281,1.0,1.0,80,0.00,,,0.00,Wunderground v.1.15,2013-01-29 18:10:00,
2013-01-29 13:20:00,57.8,52.0,29.89,North,349,2.0,5.0,81,0.00,,,0.00,Wunderground v.1.15,2013-01-29 18:20:00,
2013-01-29 13:25:00,57.6,51.8,29.88,NW,310,2.0,5.0,81,0.00,,,0.00,Wunderground v.1.15,2013-01-29 18:25:00,
2013-01-29 13:35:00,57.2,52.1,29.88,SSW,202,1.0,3.0,83,0.00,,,0.00,Wunderground v.1.15,2013-01-29 18:35:00,
2013-01-29 13:40:00,57.0,51.9,29.88,North,10,2.0,3.0,83,0.00,,,0.00,Wunderground v.1.15,2013-01-29 18:40:00,
2013-01-29 13:50:00,57.0,52.2,29.88,NNW,340,1.0,1.0,84,0.00,,,0.00,Wunderground v.1.15,2013-01-29 18:50:00,
2013-01-29 14:00:00,56.9,52.4,29.87,NE,50,1.0,1.0,85,0.00,,,0.00,Wunderground v.1.15,2013-01-29 19:00:00,
2013-01-29 14:10:00,56.7,52.2,29.88,WNW,300,1.0,2.0,85,0.00,,,0.00,Wunderground v.1.15,2013-01-29 19:10:00,
2013-01-29 14:20:00,56.6,52.8,29.88,West,260,1.0,2.0,87,0.00,,,0.00,Wunderground v.1.15,2013-01-29 19:20:00,
2013-01-29 14:25:00,56.5,52.7,29.88,WSW,248,1.0,2.0,87,0.00,,,0.00,Wunderground v.1.15,2013-01-29 19:25:00,
2013-01-29 14:35:00,56.3,53.1,29.88,North,355,1.0,2.0,89,0.00,,,0.00,Wunderground v.1.15,2013-01-29 19:35:00,
2013-01-29 14:45:00,56.2,53.0,29.88,West,271,1.0,1.0,89,0.00,,,0.00,Wunderground v.1.15,2013-01-29 19:45:00,
2013-01-29 14:50:00,56.2,53.3,29.88,North,355,1.0,3.0,90,0.00,,,0.00,Wunderground v.1.15,2013-01-29 19:50:00,
2013-01-29 15:00:00,55.9,53.3,29.87,East,98,1.0,1.0,91,0.00,,,0.00,Wunderground v.1.15,2013-01-29 20:00:00,
2013-01-29 15:10:00,55.9,53.6,29.87,NE,46,0.0,0.0,92,0.00,,,0.00,Wunderground v.1.15,2013-01-29 20:10:00,
2013-01-29 15:20:00,55.9,53.6,29.87,ENE,71,0.0,0.0,92,0.00,,,0.00,Wunderground v.1.15,2013-01-29 20:20:00,
2013-01-29 15:30:00,56.2,53.9,29.87,West,264,1.0,1.0,92,0.00,,,0.00,Wunderground v.1.15,2013-01-29 20:30:00,
2013-01-29 15:40:00,56.3,54.0,29.86,WNW,290,1.0,1.0,92,0.00,,,0.00,Wunderground v.1.15,2013-01-29 20:40:00,
2013-01-29 15:50:00,56.5,54.2,29.86,North,349,1.0,1.0,92,0.00,,,0.00,Wunderground v.1.15,2013-01-29 20:50:00,
2013-01-29 15:55:00,56.6,54.3,29.86,North,360,1.0,1.0,92,0.00,,,0.00,Wunderground v.1.15,2013-01-29 20:55:00,
2013-01-29 16:00:00,56.6,54.3,29.86,NW,309,1.0,3.0,92,0.00,,,0.00,Wunderground v.1.15,2013-01-29 21:00:00,
2013-01-29 16:10:00,56.6,54.0,29.85,NNW,348,1.0,1.0,91,0.00,,,0.00,Wunderground v.1.15,2013-01-29 21:10:00,
2013-01-29 16:15:00,56.7,54.1,29.85,NW,320,1.0,1.0,91,0.00,,,0.00,Wunderground v.1.15,2013-01-29 21:15:00,
2013-01-29 16:20:00,56.7,53.8,29.85,NW,313,1.0,1.0,90,0.00,,,0.00,Wunderground v.1.15,2013-01-29 21:20:00,
2013-01-29 16:30:00,56.7,53.8,29.85,WNW,303,0.0,0.0,90,0.00,,,0.00,Wunderground v.1.15,2013-01-29 21:30:00,
2013-01-29 16:40:00,56.9,54.0,29.84,North,5,0.0,1.0,90,0.00,,,0.00,Wunderground v.1.15,2013-01-29 21:40:00,
2013-01-29 16:50:00,57.0,53.8,29.84,North,5,0.0,0.0,89,0.00,,,0.00,Wunderground v.1.15,2013-01-29 21:50:00,
2013-01-29 17:00:00,57.0,53.8,29.84,NW,321,1.0,1.0,89,0.00,,,0.00,Wunderground v.1.15,2013-01-29 22:00:00,
2013-01-29 17:10:00,56.9,53.7,29.84,NNE,24,0.0,1.0,89,0.00,,,0.00,Wunderground v.1.15,2013-01-29 22:10:00,
2013-01-29 17:20:00,56.9,53.4,29.84,NW,311,1.0,1.0,88,0.00,,,0.00,Wunderground v.1.15,2013-01-29 22:20:00,
2013-01-29 17:25:00,56.7,53.2,29.84,NW,325,1.0,1.0,88,0.00,,,0.00,Wunderground v.1.15,2013-01-29 22:25:00,
2013-01-29 17:35:00,56.7,53.2,29.84,West,273,1.0,5.0,88,0.00,,,0.00,Wunderground v.1.15,2013-01-29 22:35:00,
2013-01-29 17:45:00,56.6,53.1,29.84,NW,317,1.0,1.0,88,0.00,,,0.00,Wunderground v.1.15,2013-01-29 22:45:00,
2013-01-29 17:50:00,56.6,53.1,29.84,North,349,1.0,1.0,88,0.00,,,0.00,Wunderground v.1.15,2013-01-29 22:50:00,
2013-01-29 18:00:00,56.5,53.0,29.84,WSW,254,0.0,0.0,88,0.00,,,0.00,Wunderground v.1.15,2013-01-29 23:00:00,
2013-01-29 18:10:00,56.3,52.8,29.83,ENE,78,0.0,0.0,88,0.00,,,0.00,Wunderground v.1.15,2013-01-29 23:10:00,
2013-01-29 18:20:00,56.2,52.7,29.83,ENE,78,0.0,0.0,88,0.00,,,0.00,Wunderground v.1.15,2013-01-29 23:20:00,
2013-01-29 18:30:00,56.0,52.5,29.84,ENE,65,0.0,0.0,88,0.00,,,0.00,Wunderground v.1.15,2013-01-29 23:30:00,
2013-01-29 18:40:00,55.9,52.4,29.84,ENE,61,0.0,0.0,88,0.00,,,0.00,Wunderground v.1.15,2013-01-29 23:40:00,
2013-01-29 18:50:00,55.7,52.5,29.83,ENE,61,0.0,0.0,89,0.00,,,0.00,Wunderground v.1.15,2013-01-29 23:50:00,
2013-01-29 19:00:00,55.6,52.4,29.83,ENE,61,0.0,0.0,89,0.00,,,0.00,Wunderground v.1.15,2013-01-30 00:00:00,
2013-01-29 19:10:00,55.4,52.2,29.83,ENE,61,0.0,0.0,89,0.00,,,0.00,Wunderground v.1.15,2013-01-30 00:10:00,
2013-01-29 19:20:00,55.4,52.5,29.82,ENE,61,0.0,0.0,90,0.00,,,0.00,Wunderground v.1.15,2013-01-30 00:20:00,
2013-01-29 19:30:00,55.4,52.5,29.82,ENE,61,0.0,0.0,90,0.00,,,0.00,Wunderground v.1.15,2013-01-30 00:30:00,
2013-01-29 19:40:00,55.4,52.8,29.82,ENE,59,0.0,0.0,91,0.00,,,0.00,Wunderground v.1.15,2013-01-30 00:40:00,
2013-01-29 19:50:00,55.4,52.5,29.82,ENE,59,0.0,0.0,90,0.00,,,0.00,Wunderground v.1.15,2013-01-30 00:50:00,
2013-01-29 20:00:00,55.4,52.8,29.82,NNE,23,0.0,0.0,91,0.00,,,0.00,Wunderground v.1.15,2013-01-30 01:00:00,
2013-01-29 20:10:00,55.9,53.3,29.82,NNW,338,1.0,1.0,91,0.00,,,0.00,Wunderground v.1.15,2013-01-30 01:10:00,
2013-01-29 20:20:00,56.2,53.6,29.82,NNW,343,0.0,0.0,91,0.00,,,0.00,Wunderground v.1.15,2013-01-30 01:20:00,
2013-01-29 20:30:00,56.2,53.6,29.82,NNE,13,0.0,0.0,91,0.00,,,0.00,Wunderground v.1.15,2013-01-30 01:30:00,
2013-01-29 20:35:00,56.2,53.6,29.82,NNE,13,0.0,0.0,91,0.00,,,0.00,Wunderground v.1.15,2013-01-30 01:35:00,
2013-01-29 20:45:00,56.3,54.0,29.82,NNE,13,0.0,0.0,92,0.00,,,0.00,Wunderground v.1.15,2013-01-30 01:45:00,
2013-01-29 20:50:00,56.3,54.0,29.83,NNE,13,0.0,0.0,92,0.00,,,0.00,Wunderground v.1.15,2013-01-30 01:50:00,
2013-01-29 21:00:00,56.5,54.2,29.82,NE,38,0.0,0.0,92,0.00,,,0.00,Wunderground v.1.15,2013-01-30 02:00:00,
2013-01-29 21:10:00,56.5,54.5,29.80,NE,38,0.0,0.0,93,0.00,,,0.00,Wunderground v.1.15,2013-01-30 02:10:00,
2013-01-29 21:20:00,56.5,54.5,29.80,NE,38,0.0,0.0,93,0.00,,,0.00,Wunderground v.1.15,2013-01-30 02:20:00,
2013-01-29 21:30:00,56.6,54.9,29.79,East,94,1.0,2.0,94,0.00,,,0.00,Wunderground v.1.15,2013-01-30 02:30:00,
2013-01-29 21:40:00,56.7,55.0,29.78,ENE,77,1.0,1.0,94,0.00,,,0.00,Wunderground v.1.15,2013-01-30 02:40:00,
2013-01-29 21:50:00,56.7,55.0,29.77,NE,34,1.0,1.0,94,0.00,,,0.00,Wunderground v.1.15,2013-01-30 02:50:00,
2013-01-29 22:00:00,56.9,55.2,29.77,North,9,1.0,1.0,94,0.00,,,0.01,Wunderground v.1.15,2013-01-30 03:00:00,
2013-01-29 22:05:00,56.9,55.2,29.77,ENE,60,1.0,1.0,94,0.00,,,0.01,Wunderground v.1.15,2013-01-30 03:05:00,
2013-01-29 22:15:00,57.0,55.6,29.76,NE,38,1.0,3.0,95,0.04,,,0.02,Wunderground v.1.15,2013-01-30 03:15:00,
2013-01-29 22:20:00,57.0,55.6,29.75,NNE,15,1.0,1.0,95,0.06,,,0.03,Wunderground v.1.15,2013-01-30 03:20:00,
2013-01-29 22:30:00,57.0,55.6,29.75,ENE,66,1.0,4.0,95,0.11,,,0.05,Wunderground v.1.15,2013-01-30 03:30:00,
2013-01-29 22:40:00,57.0,55.9,29.74,NNW,337,2.0,2.0,96,0.16,,,0.07,Wunderground v.1.15,2013-01-30 03:40:00,
2013-01-29 22:50:00,57.2,56.1,29.75,South,184,1.0,4.0,96,0.30,,,0.10,Wunderground v.1.15,2013-01-30 03:50:00,
2013-01-29 23:00:00,57.2,56.1,29.75,NE,55,2.0,3.0,96,0.06,,,0.11,Wunderground v.1.15,2013-01-30 04:00:00,
2013-01-29 23:10:00,57.3,56.2,29.74,NE,49,2.0,2.0,96,0.61,,,0.14,Wunderground v.1.15,2013-01-30 04:10:00,
2013-01-29 23:20:00,57.3,56.5,29.73,WSW,257,1.0,1.0,97,0.14,,,0.16,Wunderground v.1.15,2013-01-30 04:20:00,
2013-01-29 23:25:00,57.3,56.5,29.73,WSW,253,2.0,2.0,97,0.07,,,0.16,Wunderground v.1.15,2013-01-30 04:25:00,
2013-01-29 23:35:00,57.2,56.4,29.74,NE,51,1.0,3.0,97,0.04,,,0.17,Wunderground v.1.15,2013-01-30 04:35:00,
2013-01-29 23:40:00,57.0,56.2,29.74,NNW,336,2.0,2.0,97,0.04,,,0.17,Wunderground v.1.15,2013-01-30 04:40:00,
2013-01-29 23:50:00,57.0,56.2,29.74,SE,146,2.0,2.0,97,0.00,,,0.17,Wunderground v.1.15,2013-01-30 04:50:00,